TimeEDT,TemperatureF,Dew PointF,Humidity,Sea Level PressureIn,VisibilityMPH,Wind Direction,Wind SpeedMPH,Gust SpeedMPH,PrecipitationIn,Events,Conditions,WindDirDegrees,DateUTC
12:14 AM,57.2,44.6,63,29.86,10.0,NNW,9.2,-,N/A,,Mostly Cloudy,330,2013-09-22 04:14:00
12:34 AM,57.2,44.6,63,29.86,10.0,NNW,12.7,-,N/A,,Overcast,330,2013-09-22 04:34:00
12:54 AM,57.2,44.6,63,29.87,10.0,NNW,10.4,-,N/A,,Overcast,330,2013-09-22 04:54:00
1:14 AM,57.2,44.6,63,29.87,10.0,NNW,6.9,-,N/A,,Overcast,330,2013-09-22 05:14:00
1:34 AM,55.4,44.6,67,29.88,10.0,NNW,5.8,-,N/A,,Overcast,340,2013-09-22 05:34:00
1:54 AM,55.4,42.8,63,29.88,10.0,North,10.4,-,N/A,,Overcast,350,2013-09-22 05:54:00
2:14 AM,55.4,42.8,63,29.89,10.0,North,8.1,-,N/A,,Overcast,350,2013-09-22 06:14:00
2:34 AM,55.4,44.6,67,29.89,10.0,NNW,9.2,-,N/A,,Overcast,340,2013-09-22 06:34:00
2:54 AM,55.4,42.8,63,29.89,10.0,NNW,10.4,-,N/A,,Overcast,340,2013-09-22 06:54:00
3:14 AM,55.4,41.0,58,29.89,10.0,NNW,10.4,18.4,N/A,,Overcast,330,2013-09-22 07:14:00
3:34 AM,55.4,41.0,58,29.90,10.0,NNW,12.7,17.3,N/A,,Overcast,330,2013-09-22 07:34:00
3:54 AM,55.4,39.2,54,29.90,10.0,NNW,8.1,-,N/A,,Overcast,340,2013-09-22 07:54:00
4:14 AM,55.4,39.2,54,29.90,10.0,NNW,6.9,-,N/A,,Overcast,330,2013-09-22 08:14:00
4:34 AM,55.4,41.0,58,29.90,10.0,NNW,8.1,-,N/A,,Overcast,330,2013-09-22 08:34:00
4:54 AM,53.6,41.0,62,29.91,10.0,NNW,10.4,-,N/A,,Overcast,340,2013-09-22 08:54:00
5:14 AM,53.6,39.2,58,29.91,10.0,NNW,13.8,17.3,N/A,,Overcast,330,2013-09-22 09:14:00
5:34 AM,53.6,37.4,54,29.92,10.0,NNW,10.4,16.1,N/A,,Overcast,340,2013-09-22 09:34:00
5:54 AM,53.6,37.4,54,29.92,10.0,NNW,6.9,-,N/A,,Overcast,330,2013-09-22 09:54:00
6:14 AM,51.8,37.4,58,29.93,10.0,NNW,10.4,-,N/A,,Overcast,330,2013-09-22 10:14:00
6:34 AM,51.8,37.4,58,29.93,10.0,NNW,8.1,-,N/A,,Overcast,330,2013-09-22 10:34:00
6:54 AM,51.8,39.2,62,29.94,10.0,NNW,6.9,-,N/A,,Mostly Cloudy,340,2013-09-22 10:54:00
7:15 AM,51.8,37.4,58,29.95,10.0,North,5.8,17.3,N/A,,Scattered Clouds,350,2013-09-22 11:15:00
7:34 AM,51.8,37.4,58,29.95,10.0,NNW,4.6,-,N/A,,Mostly Cloudy,340,2013-09-22 11:34:00
7:54 AM,51.8,39.2,62,29.96,10.0,North,6.9,-,N/A,,Overcast,350,2013-09-22 11:54:00
8:14 AM,53.6,39.2,58,29.97,10.0,NNW,10.4,17.3,N/A,,Mostly Cloudy,330,2013-09-22 12:14:00
8:34 AM,53.6,39.2,58,29.97,10.0,North,10.4,-,N/A,,Mostly Cloudy,360,2013-09-22 12:34:00
8:54 AM,53.6,39.2,58,29.97,10.0,NNW,12.7,-,N/A,,Mostly Cloudy,340,2013-09-22 12:54:00
9:14 AM,53.6,39.2,58,29.98,10.0,North,10.4,15.0,N/A,,Mostly Cloudy,350,2013-09-22 13:14:00
9:34 AM,55.4,39.2,54,29.99,10.0,NW,9.2,-,N/A,,Mostly Cloudy,320,2013-09-22 13:34:00
9:54 AM,55.4,39.2,54,29.99,10.0,NNW,11.5,-,N/A,,Mostly Cloudy,340,2013-09-22 13:54:00
10:14 AM,55.4,37.4,51,30.00,10.0,North,13.8,18.4,N/A,,Scattered Clouds,350,2013-09-22 14:14:00
10:34 AM,55.4,37.4,51,30.00,10.0,NNW,12.7,17.3,N/A,,Clear,330,2013-09-22 14:34:00
10:54 AM,55.4,37.4,51,30.00,10.0,NNW,9.2,-,N/A,,Clear,330,2013-09-22 14:54:00
11:14 AM,55.4,37.4,51,30.00,10.0,NNW,11.5,17.3,N/A,,Clear,340,2013-09-22 15:14:00
11:34 AM,55.4,39.2,54,30.00,10.0,NNW,8.1,-,N/A,,Clear,340,2013-09-22 15:34:00
11:54 AM,57.2,39.2,51,30.00,10.0,NNW,11.5,16.1,N/A,,Clear,330,2013-09-22 15:54:00
12:14 PM,57.2,39.2,51,30.01,10.0,NW,9.2,-,N/A,,Clear,310,2013-09-22 16:14:00
12:34 PM,57.2,37.4,48,30.01,10.0,North,6.9,-,N/A,,Scattered Clouds,360,2013-09-22 16:34:00
12:54 PM,59.0,37.4,45,30.01,10.0,North,3.5,-,N/A,,Scattered Clouds,360,2013-09-22 16:54:00
1:14 PM,59.0,39.2,48,30.01,10.0,North,4.6,9.2,N/A,,Scattered Clouds,350,2013-09-22 17:14:00
1:34 PM,59.0,37.4,45,30.01,10.0,North,5.8,-,N/A,,Scattered Clouds,350,2013-09-22 17:34:00
1:54 PM,60.8,39.2,45,30.00,10.0,NW,10.4,23.0,N/A,,Clear,320,2013-09-22 17:54:00
2:14 PM,60.8,37.4,42,30.00,10.0,NW,6.9,-,N/A,,Scattered Clouds,320,2013-09-22 18:14:00
2:34 PM,60.8,37.4,42,29.99,10.0,NNW,5.8,-,N/A,,Scattered Clouds,330,2013-09-22 18:34:00
2:54 PM,60.8,37.4,42,29.99,10.0,NW,6.9,16.1,N/A,,Scattered Clouds,320,2013-09-22 18:54:00
3:14 PM,60.8,37.4,42,29.99,10.0,North,6.9,-,N/A,,Scattered Clouds,350,2013-09-22 19:14:00
3:34 PM,60.8,37.4,42,29.99,10.0,Calm,Calm,-,N/A,,Scattered Clouds,0,2013-09-22 19:34:00
3:54 PM,60.8,37.4,42,29.99,10.0,Calm,Calm,-,N/A,,Scattered Clouds,0,2013-09-22 19:54:00
4:14 PM,62.6,39.2,42,29.98,10.0,Calm,Calm,-,N/A,,Mostly Cloudy,0,2013-09-22 20:14:00
4:34 PM,60.8,39.2,45,29.98,10.0,North,3.5,-,N/A,,Overcast,360,2013-09-22 20:34:00
4:54 PM,60.8,39.2,45,29.99,10.0,WNW,3.5,-,N/A,,Overcast,290,2013-09-22 20:54:00
5:14 PM,62.6,41.0,45,29.99,10.0,North,4.6,-,N/A,,Overcast,360,2013-09-22 21:14:00
5:34 PM,60.8,41.0,48,29.99,10.0,North,6.9,-,N/A,,Overcast,10,2013-09-22 21:34:00
5:54 PM,60.8,44.6,55,29.99,10.0,NE,10.4,-,N/A,,Overcast,50,2013-09-22 21:54:00
6:14 PM,59.0,42.8,55,30.00,10.0,NE,11.5,-,N/A,,Overcast,50,2013-09-22 22:14:00
6:34 PM,57.2,42.8,59,30.01,10.0,NNE,9.2,-,N/A,,Overcast,30,2013-09-22 22:34:00
6:54 PM,57.2,42.8,59,30.01,10.0,North,4.6,-,N/A,,Overcast,10,2013-09-22 22:54:00
7:14 PM,57.2,42.8,59,30.01,10.0,NNE,3.5,-,N/A,,Overcast,20,2013-09-22 23:14:00
7:34 PM,57.2,42.8,59,30.02,10.0,NE,6.9,-,N/A,,Overcast,50,2013-09-22 23:34:00
7:54 PM,57.2,42.8,59,30.03,10.0,NE,6.9,-,N/A,,Overcast,40,2013-09-22 23:54:00
8:14 PM,57.2,42.8,59,30.04,10.0,NNE,9.2,-,N/A,,Overcast,20,2013-09-23 00:14:00
8:34 PM,55.4,41.0,58,30.04,10.0,North,8.1,-,N/A,,Overcast,10,2013-09-23 00:34:00
8:54 PM,55.4,41.0,58,30.05,10.0,NNE,5.8,-,N/A,,Overcast,30,2013-09-23 00:54:00
9:14 PM,55.4,42.8,63,30.05,10.0,NE,6.9,-,N/A,,Overcast,40,2013-09-23 01:14:00
9:34 PM,55.4,42.8,63,30.06,10.0,NNE,10.4,-,N/A,,Overcast,20,2013-09-23 01:34:00
9:53 PM,55.4,41.0,58,30.06,10.0,NNE,11.5,-,N/A,,Overcast,20,2013-09-23 01:53:00
10:14 PM,55.4,41.0,58,30.06,10.0,NNE,10.4,-,N/A,,Overcast,20,2013-09-23 02:14:00
10:34 PM,53.6,41.0,62,30.06,10.0,NNE,11.5,-,N/A,,Overcast,30,2013-09-23 02:34:00
10:54 PM,53.6,41.0,62,30.06,10.0,NNE,12.7,-,N/A,,Overcast,20,2013-09-23 02:54:00
11:14 PM,53.6,41.0,62,30.06,10.0,NNE,10.4,-,N/A,,Overcast,30,2013-09-23 03:14:00
11:34 PM,53.6,41.0,62,30.06,10.0,NNE,11.5,-,N/A,,Overcast,30,2013-09-23 03:34:00
11:54 PM,53.6,39.2,58,30.07,10.0,NNE,9.2,-,N/A,,Overcast,20,2013-09-23 03:54:00